TimeEDT,TemperatureF,Dew PointF,Humidity,Sea Level PressureIn,VisibilityMPH,Wind Direction,Wind SpeedMPH,Gust SpeedMPH,PrecipitationIn,Events,Conditions,WindDirDegrees,DateUTC
12:56 AM,33.1,23.0,66,29.81,10.0,West,8.1,-,N/A,,Overcast,260,2013-03-23 04:56:00
1:56 AM,33.1,21.9,64,29.82,10.0,West,3.5,-,N/A,,Overcast,270,2013-03-23 05:56:00
2:56 AM,32.0,21.9,66,29.81,10.0,West,5.8,-,N/A,,Mostly Cloudy,260,2013-03-23 06:56:00
3:56 AM,30.9,23.0,72,29.79,10.0,West,4.6,-,N/A,,Scattered Clouds,260,2013-03-23 07:56:00
4:56 AM,30.9,21.9,69,29.78,10.0,West,5.8,-,N/A,,Overcast,260,2013-03-23 08:56:00
5:56 AM,32.0,21.9,66,29.78,10.0,West,8.1,-,N/A,,Clear,260,2013-03-23 09:56:00
6:56 AM,32.0,21.9,66,29.79,10.0,West,10.4,-,N/A,,Clear,270,2013-03-23 10:56:00
7:56 AM,33.1,21.9,64,29.80,10.0,West,11.5,-,N/A,,Clear,260,2013-03-23 11:56:00
8:56 AM,36.0,23.0,59,29.79,10.0,West,13.8,19.6,N/A,,Clear,280,2013-03-23 12:56:00
9:56 AM,39.9,21.0,47,29.77,10.0,WNW,19.6,26.5,N/A,,Scattered Clouds,290,2013-03-23 13:56:00
10:56 AM,42.1,19.0,40,29.75,10.0,WNW,20.7,26.5,N/A,,Scattered Clouds,290,2013-03-23 14:56:00
11:56 AM,41.0,19.0,41,29.75,10.0,WNW,20.7,28.8,N/A,,Overcast,300,2013-03-23 15:56:00
12:56 PM,43.0,19.0,38,29.75,10.0,WNW,19.6,26.5,N/A,,Mostly Cloudy,290,2013-03-23 16:56:00
1:56 PM,45.0,17.1,33,29.73,10.0,WNW,20.7,31.1,N/A,,Partly Cloudy,300,2013-03-23 17:56:00
2:56 PM,46.0,12.9,26,29.71,10.0,WNW,19.6,36.8,N/A,,Clear,300,2013-03-23 18:56:00
3:56 PM,46.0,14.0,28,29.70,10.0,WNW,21.9,33.4,N/A,,Clear,300,2013-03-23 19:56:00
4:56 PM,45.0,14.0,29,29.71,10.0,NW,16.1,33.4,N/A,,Clear,310,2013-03-23 20:56:00
5:56 PM,44.1,15.1,31,29.73,10.0,WNW,20.7,32.2,N/A,,Clear,290,2013-03-23 21:56:00
6:56 PM,41.0,16.0,36,29.76,10.0,NW,17.3,23.0,N/A,,Clear,320,2013-03-23 22:56:00
7:56 PM,39.0,16.0,39,29.79,10.0,NW,11.5,27.6,N/A,,Clear,320,2013-03-23 23:56:00
8:56 PM,37.9,17.1,43,29.82,10.0,NW,11.5,19.6,N/A,,Clear,320,2013-03-24 00:56:00
9:56 PM,37.0,16.0,42,29.85,10.0,NW,15.0,20.7,N/A,,Clear,310,2013-03-24 01:56:00
10:56 PM,37.0,18.0,46,29.86,10.0,NW,13.8,-,N/A,,Mostly Cloudy,310,2013-03-24 02:56:00
11:56 PM,35.1,18.0,50,29.86,10.0,NW,9.2,-,N/A,,Clear,320,2013-03-24 03:56:00